Time,TemperatureF,DewpointF,PressureIn,WindDirection,WindDirectionDegrees,WindSpeedMPH,WindSpeedGustMPH,Humidity,HourlyPrecipIn,Conditions,Clouds,dailyrainin,SoftwareType,DateUTC
2013-07-28 00:03:00,58.0,52.0,29.89,NNW,328,4.0,6.0,79,0.00,,,0.00,weatherlink.com 1.10,2013-07-28 04:03:00,
2013-07-28 00:18:00,57.3,51.0,29.90,WNW,293,3.0,5.0,80,0.00,,,0.00,weatherlink.com 1.10,2013-07-28 04:18:00,
2013-07-28 00:33:00,56.9,51.0,29.90,NW,309,4.0,6.0,81,0.00,,,0.00,weatherlink.com 1.10,2013-07-28 04:33:00,
2013-07-28 00:48:00,56.4,51.0,29.90,WNW,297,3.0,4.0,82,0.00,,,0.00,weatherlink.com 1.10,2013-07-28 04:48:00,
2013-07-28 01:03:00,55.8,50.0,29.90,WNW,300,1.0,4.0,82,0.00,,,0.00,weatherlink.com 1.10,2013-07-28 05:03:00,
2013-07-28 01:18:00,55.5,50.0,29.90,WNW,290,2.0,3.0,82,0.00,,,0.00,weatherlink.com 1.10,2013-07-28 05:18:00,
2013-07-28 01:33:00,55.5,50.0,29.90,WNW,303,2.0,4.0,82,0.00,,,0.00,weatherlink.com 1.10,2013-07-28 05:33:00,
2013-07-28 01:48:00,55.1,50.0,29.90,West,276,0.0,2.0,83,0.00,,,0.00,weatherlink.com 1.10,2013-07-28 05:48:00,
2013-07-28 02:03:00,54.9,50.0,29.90,WSW,257,0.0,1.0,83,0.00,,,0.00,weatherlink.com 1.10,2013-07-28 06:03:00,
2013-07-28 02:18:00,54.5,49.0,29.90,West,276,2.0,3.0,83,0.00,,,0.00,weatherlink.com 1.10,2013-07-28 06:18:00,
2013-07-28 02:33:00,54.3,49.0,29.90,WNW,285,3.0,5.0,82,0.00,,,0.00,weatherlink.com 1.10,2013-07-28 06:33:00,
2013-07-28 02:48:00,53.9,49.0,29.90,WNW,291,5.0,5.0,82,0.00,,,0.00,weatherlink.com 1.10,2013-07-28 06:48:00,
2013-07-28 03:03:00,53.5,48.0,29.90,WNW,284,2.0,4.0,82,0.00,,,0.00,weatherlink.com 1.10,2013-07-28 07:03:00,
2013-07-28 03:18:00,53.2,48.0,29.90,WNW,289,2.0,4.0,82,0.00,,,0.00,weatherlink.com 1.10,2013-07-28 07:18:00,
2013-07-28 03:33:00,52.8,47.0,29.90,West,276,3.0,4.0,82,0.00,,,0.00,weatherlink.com 1.10,2013-07-28 07:33:00,
2013-07-28 03:48:00,52.7,48.0,29.90,West,279,1.0,3.0,83,0.00,,,0.00,weatherlink.com 1.10,2013-07-28 07:48:00,
2013-07-28 04:03:00,52.4,47.0,29.90,WNW,285,2.0,3.0,83,0.00,,,0.00,weatherlink.com 1.10,2013-07-28 08:03:00,
2013-07-28 04:18:00,52.1,47.0,29.90,West,271,0.0,2.0,83,0.00,,,0.00,weatherlink.com 1.10,2013-07-28 08:18:00,
2013-07-28 04:33:00,51.9,47.0,29.89,WSW,252,1.0,2.0,83,0.00,,,0.00,weatherlink.com 1.10,2013-07-28 08:33:00,
2013-07-28 04:48:00,51.7,47.0,29.89,WSW,240,1.0,2.0,84,0.00,,,0.00,weatherlink.com 1.10,2013-07-28 08:48:00,
2013-07-28 05:03:00,51.8,48.0,29.89,SW,214,1.0,2.0,85,0.00,,,0.00,weatherlink.com 1.10,2013-07-28 09:03:00,
2013-07-28 05:18:00,52.1,47.0,29.90,WSW,252,1.0,1.0,84,0.00,,,0.00,weatherlink.com 1.10,2013-07-28 09:18:00,
2013-07-28 05:33:00,52.0,48.0,29.90,SSW,203,2.0,3.0,85,0.00,,,0.00,weatherlink.com 1.10,2013-07-28 09:33:00,
2013-07-28 05:48:00,51.4,47.0,29.91,SSW,198,1.0,3.0,86,0.00,,,0.00,weatherlink.com 1.10,2013-07-28 09:48:00,
2013-07-28 06:03:00,51.5,48.0,29.91,West,280,1.0,3.0,86,0.00,,,0.00,weatherlink.com 1.10,2013-07-28 10:03:00,
2013-07-28 06:18:00,50.9,47.0,29.92,WSW,238,2.0,2.0,86,0.00,,,0.00,weatherlink.com 1.10,2013-07-28 10:18:00,
2013-07-28 06:33:00,50.9,47.0,29.93,SW,233,1.0,5.0,87,0.00,,,0.00,weatherlink.com 1.10,2013-07-28 10:33:00,
2013-07-28 06:48:00,51.0,48.0,29.93,SW,221,2.0,3.0,88,0.00,,,0.00,weatherlink.com 1.10,2013-07-28 10:48:00,
2013-07-28 07:03:00,51.7,48.0,29.93,South,184,3.0,5.0,87,0.00,,,0.00,weatherlink.com 1.10,2013-07-28 11:03:00,
2013-07-28 07:18:00,52.8,48.0,29.94,SW,214,3.0,5.0,85,0.00,,,0.00,weatherlink.com 1.10,2013-07-28 11:18:00,
2013-07-28 07:34:00,53.2,49.0,29.94,SW,221,1.0,4.0,85,0.00,,,0.00,weatherlink.com 1.10,2013-07-28 11:34:00,
2013-07-28 07:49:00,53.7,49.0,29.95,SW,229,2.0,4.0,85,0.00,,,0.00,weatherlink.com 1.10,2013-07-28 11:49:00,
2013-07-28 08:04:00,54.5,50.0,29.95,SW,229,2.0,6.0,84,0.00,,,0.00,weatherlink.com 1.10,2013-07-28 12:04:00,
2013-07-28 08:19:00,55.8,50.0,29.95,WSW,250,3.0,5.0,81,0.00,,,0.00,weatherlink.com 1.10,2013-07-28 12:19:00,
2013-07-28 08:34:00,57.0,51.0,29.95,West,265,3.0,5.0,79,0.00,,,0.00,weatherlink.com 1.10,2013-07-28 12:34:00,
2013-07-28 08:49:00,57.8,50.0,29.95,WSW,240,6.0,9.0,76,0.00,,,0.00,weatherlink.com 1.10,2013-07-28 12:49:00,
2013-07-28 09:04:00,58.4,50.0,29.95,WNW,287,5.0,10.0,74,0.00,,,0.00,weatherlink.com 1.10,2013-07-28 13:04:00,
2013-07-28 09:19:00,59.4,50.0,29.95,West,277,7.0,11.0,71,0.00,,,0.00,weatherlink.com 1.10,2013-07-28 13:19:00,
2013-07-28 09:34:00,60.3,50.0,29.95,NW,316,6.0,10.0,70,0.00,,,0.00,weatherlink.com 1.10,2013-07-28 13:34:00,
2013-07-28 09:49:00,61.8,50.0,29.95,WNW,297,8.0,12.0,65,0.00,,,0.00,weatherlink.com 1.10,2013-07-28 13:49:00,
2013-07-28 10:04:00,62.7,51.0,29.95,WNW,300,5.0,11.0,65,0.00,,,0.00,weatherlink.com 1.10,2013-07-28 14:04:00,
2013-07-28 10:19:00,63.7,50.0,29.95,WNW,292,5.0,11.0,61,0.00,,,0.00,weatherlink.com 1.10,2013-07-28 14:19:00,
2013-07-28 10:34:00,64.2,49.0,29.95,WNW,284,11.0,16.0,59,0.00,,,0.00,weatherlink.com 1.10,2013-07-28 14:34:00,
2013-07-28 10:49:00,64.6,49.0,29.94,WNW,290,4.0,14.0,58,0.00,,,0.00,weatherlink.com 1.10,2013-07-28 14:49:00,
2013-07-28 11:04:00,65.6,48.0,29.94,West,281,4.0,15.0,53,0.00,,,0.00,weatherlink.com 1.10,2013-07-28 15:04:00,
2013-07-28 11:19:00,66.6,50.0,29.95,NW,321,14.0,15.0,55,0.00,,,0.00,weatherlink.com 1.10,2013-07-28 15:19:00,
2013-07-28 11:34:00,67.2,49.0,29.95,WNW,295,12.0,18.0,52,0.00,,,0.00,weatherlink.com 1.10,2013-07-28 15:34:00,
2013-07-28 11:49:00,67.3,49.0,29.95,WNW,290,9.0,15.0,53,0.00,,,0.00,weatherlink.com 1.10,2013-07-28 15:49:00,
2013-07-28 12:04:00,67.4,49.0,29.95,WNW,291,10.0,18.0,52,0.00,,,0.00,weatherlink.com 1.10,2013-07-28 16:04:00,
2013-07-28 12:19:00,67.8,49.0,29.95,NW,321,12.0,21.0,52,0.00,,,0.00,weatherlink.com 1.10,2013-07-28 16:19:00,
2013-07-28 12:34:00,68.5,48.0,29.94,WNW,283,16.0,23.0,48,0.00,,,0.00,weatherlink.com 1.10,2013-07-28 16:34:00,
2013-07-28 12:49:00,68.6,49.0,29.94,SW,229,9.0,16.0,49,0.00,,,0.00,weatherlink.com 1.10,2013-07-28 16:49:00,
2013-07-28 13:04:00,68.7,51.0,29.94,WNW,290,7.0,18.0,53,0.00,,,0.00,weatherlink.com 1.10,2013-07-28 17:04:00,
2013-07-28 13:19:00,68.4,50.0,29.94,WNW,302,6.0,20.0,52,0.00,,,0.00,weatherlink.com 1.10,2013-07-28 17:19:00,
2013-07-28 13:34:00,69.2,49.0,29.94,WNW,284,7.0,24.0,49,0.00,,,0.00,weatherlink.com 1.10,2013-07-28 17:34:00,
2013-07-28 13:49:00,68.7,49.0,29.94,WNW,293,7.0,23.0,50,0.00,,,0.00,weatherlink.com 1.10,2013-07-28 17:49:00,
2013-07-28 14:04:00,69.9,49.0,29.94,NW,305,13.0,17.0,48,0.00,,,0.00,weatherlink.com 1.10,2013-07-28 18:04:00,
2013-07-28 14:19:00,69.2,49.0,29.93,SW,235,14.0,18.0,49,0.00,,,0.00,weatherlink.com 1.10,2013-07-28 18:19:00,
2013-07-28 14:34:00,69.7,50.0,29.93,WNW,285,9.0,16.0,49,0.00,,,0.00,weatherlink.com 1.10,2013-07-28 18:34:00,
2013-07-28 14:49:00,70.2,51.0,29.93,WNW,290,10.0,16.0,51,0.00,,,0.00,weatherlink.com 1.10,2013-07-28 18:49:00,
2013-07-28 15:05:00,69.6,49.0,29.93,WNW,291,13.0,18.0,49,0.00,,,0.00,weatherlink.com 1.10,2013-07-28 19:05:00,
2013-07-28 15:20:00,69.5,51.0,29.94,WNW,302,8.0,18.0,52,0.00,,,0.00,weatherlink.com 1.10,2013-07-28 19:20:00,
2013-07-28 15:35:00,69.8,50.0,29.94,West,269,8.0,17.0,50,0.00,,,0.00,weatherlink.com 1.10,2013-07-28 19:35:00,
2013-07-28 15:50:00,70.1,50.0,29.94,WNW,303,8.0,21.0,49,0.00,,,0.00,weatherlink.com 1.10,2013-07-28 19:50:00,
2013-07-28 16:05:00,69.8,49.0,29.94,WNW,293,13.0,17.0,47,0.00,,,0.00,weatherlink.com 1.10,2013-07-28 20:05:00,
2013-07-28 16:20:00,69.8,50.0,29.94,West,280,8.0,17.0,49,0.00,,,0.00,weatherlink.com 1.10,2013-07-28 20:20:00,
2013-07-28 16:35:00,69.7,51.0,29.94,WNW,291,6.0,18.0,51,0.00,,,0.00,weatherlink.com 1.10,2013-07-28 20:35:00,
2013-07-28 16:50:00,69.5,49.0,29.95,West,271,6.0,16.0,49,0.00,,,0.00,weatherlink.com 1.10,2013-07-28 20:50:00,
2013-07-28 17:05:00,69.9,50.0,29.95,WNW,291,12.0,20.0,49,0.00,,,0.00,weatherlink.com 1.10,2013-07-28 21:05:00,
2013-07-28 17:20:00,69.2,50.0,29.95,WNW,290,6.0,19.0,51,0.00,,,0.00,weatherlink.com 1.10,2013-07-28 21:20:00,
2013-07-28 17:35:00,69.6,50.0,29.95,West,280,10.0,19.0,50,0.00,,,0.00,weatherlink.com 1.10,2013-07-28 21:35:00,
2013-07-28 17:50:00,70.4,51.0,29.95,WNW,288,8.0,18.0,50,0.00,,,0.00,weatherlink.com 1.10,2013-07-28 21:50:00,
2013-07-28 18:05:00,69.9,50.0,29.95,WNW,283,13.0,20.0,50,0.00,,,0.00,weatherlink.com 1.10,2013-07-28 22:05:00,
2013-07-28 18:20:00,69.3,50.0,29.96,WNW,293,9.0,19.0,51,0.00,,,0.00,weatherlink.com 1.10,2013-07-28 22:20:00,
2013-07-28 18:35:00,69.0,50.0,29.96,WNW,287,7.0,18.0,52,0.00,,,0.00,weatherlink.com 1.10,2013-07-28 22:35:00,
2013-07-28 18:50:00,69.0,50.0,29.96,West,269,7.0,18.0,52,0.00,,,0.00,weatherlink.com 1.10,2013-07-28 22:50:00,
2013-07-28 19:05:00,68.7,51.0,29.96,West,280,12.0,12.0,54,0.00,,,0.00,weatherlink.com 1.10,2013-07-28 23:05:00,
2013-07-28 19:20:00,68.8,51.0,29.97,WNW,288,7.0,16.0,54,0.00,,,0.00,weatherlink.com 1.10,2013-07-28 23:20:00,
2013-07-28 19:35:00,68.6,52.0,29.98,WNW,302,7.0,12.0,55,0.00,,,0.00,weatherlink.com 1.10,2013-07-28 23:35:00,
2013-07-28 19:50:00,68.3,51.0,29.98,WNW,287,7.0,13.0,54,0.00,,,0.00,weatherlink.com 1.10,2013-07-28 23:50:00,
2013-07-28 20:05:00,67.9,51.0,29.98,WNW,302,5.0,9.0,56,0.00,,,0.00,weatherlink.com 1.10,2013-07-29 00:05:00,
2013-07-28 20:20:00,67.7,52.0,29.98,WNW,300,5.0,10.0,57,0.00,,,0.00,weatherlink.com 1.10,2013-07-29 00:20:00,
2013-07-28 20:35:00,67.4,51.0,29.99,West,270,4.0,12.0,57,0.00,,,0.00,weatherlink.com 1.10,2013-07-29 00:35:00,
2013-07-28 20:50:00,67.3,51.0,29.99,West,269,6.0,11.0,57,0.00,,,0.00,weatherlink.com 1.10,2013-07-29 00:50:00,
2013-07-28 21:05:00,66.8,52.0,29.99,West,281,5.0,9.0,59,0.00,,,0.00,weatherlink.com 1.10,2013-07-29 01:05:00,
2013-07-28 21:20:00,65.5,52.0,30.00,WNW,284,3.0,5.0,62,0.00,,,0.00,weatherlink.com 1.10,2013-07-29 01:20:00,
2013-07-28 21:35:00,64.6,52.0,30.00,WNW,283,2.0,3.0,65,0.00,,,0.00,weatherlink.com 1.10,2013-07-29 01:35:00,
2013-07-28 22:05:00,63.5,52.0,30.00,WNW,290,1.0,2.0,66,0.00,,,0.00,weatherlink.com 1.10,2013-07-29 02:05:00,
2013-07-28 22:20:00,63.2,52.0,30.01,WNW,290,0.0,-999.0,67,-99.99,,,0.00,weatherlink.com 1.10,2013-07-29 02:20:00,
2013-07-28 22:35:00,62.8,52.0,30.01,WNW,291,0.0,1.0,68,0.00,,,0.00,weatherlink.com 1.10,2013-07-29 02:35:00,
2013-07-28 22:50:00,62.1,52.0,30.01,WNW,290,0.0,0.0,69,0.00,,,0.00,weatherlink.com 1.10,2013-07-29 02:50:00,
2013-07-28 23:35:00,59.8,52.0,30.02,WNW,291,0.0,0.0,75,0.00,,,0.00,weatherlink.com 1.10,2013-07-29 03:35:00,
2013-07-28 23:50:00,60.2,53.0,30.02,South,183,1.0,2.0,76,0.00,,,0.00,weatherlink.com 1.10,2013-07-29 03:50:00,